Temp
2 3 3 3 3 2 3 2 1 1 2 2 1 3 3 3 8 9 9 9 9 8 7 7 8 7 7 8 9 8 8 8 6 10 11 10 9 9 9 7 9 7 6 7
2 3 3 3 3 4 2 1 1 1 2 1 2 4 6 8 8 8 9 9 10 10 8 8 8 9 10 10 9 8 8 7 5 7 8 9 10 10 9 10 7 7 6 6
3 3 4 4 4 4 3 2 1 2 2 3 3 5 8 7 9 9 10 10 10 10 10 9 9 9 10 10 9 9 8 7 6 5 7 8 9 9 9 8 5 6 6 5
4 5 4 5 5 5 4 4 1 3 1 3 2 7 8 7 7 9 10 9 10 10 9 9 9 10 9 10 10 9 8 6 5 9 10 9 8 8 8 7 9 7 6 7
4 5 5 6 5 6 5 5 4 4 4 5 6 7 7 7 7 7 7 7 7 7 7 8 8 9 8 9 8 10 8 6 7 5 9 9 8 7 8 8 8 8 8 8
5 4 4 5 6 6 5 5 5 6 6 4 5 6 7 7 9 8 7 8 7 6 6 7 8 10 10 9 9 7 8 5 3 5 8 9 7 7 7 8 7 9 8 9
5 5 4 5 6 7 7 6 6 6 4 5 6 7 7 6 6 7 7 8 7 8 8 10 10 10 10 9 8 8 8 6 2 3 6 5 7 8 8 8 8 7 7 6
4 5 5 5 6 6 6 6 6 7 4 5 7 7 7 7 7 6 6 7 8 8 8 7 7 7 9 9 9 9 7 6 4 4 4 8 8 8 8 8 8 7 7 6
3 4 5 6 6 6 6 6 7 6 5 3 3 4 8 5 5 5 7 8 8 8 6 6 8 6 8 8 7 8 8 7 5 6 7 9 8 7 8 8 6 7 7 6
4 3 4 5 5 6 6 6 7 7 5 4 4 3 4 7 6 4 7 8 8 8 4 5 5 4 7 7 7 7 5 5 6 5 6 7 8 7 8 8 7 7 7 7
4 4 3 3 4 5 6 6 7 7 6 5 5 5 5 6 6 5 7 7 7 5 5 5 5 5 5 6 7 8 6 4 5 5 6 6 7 7 7 6 7 7 7 7
4 4 4 4 5 6 6 6 6 7 7 5 5 5 5 5 6 6 6 6 6 5 4 4 3 5 4 5 5 6 5 5 6 5 6 7 8 7 7 7 7 6 6 6
4 5 5 4 4 5 5 6 6 7 6 5 5 5 5 5 6 5 6 6 6 6 6 5 4 5 3 4 4 7 6 6 5 6 6 7 8 7 7 7 6 6 5 5
4 5 6 5 5 4 6 6 6 6 6 5 5 6 5 5 5 6 6 6 6 6 6 5 3 4 5 3 4 4 5 5 4 4 5 7 7 7 7 6 5 5 4 4
4 4 5 5 5 5 5 5 6 6 5 4 5 5 5 5 5 5 5 5 5 6 6 2 3 3 3 1 1 0 4 3 4 4 6 6 6 6 6 5 5 4 3 3
4 4 5 5 5 5 5 6 5 5 6 5 0 4 4 4 4 5 5 5 5 5 5 4 4 4 3 0 1 4 7 8 9 7 7 7 6 5 5 5 4 3 3 2
3 4 4 4 5 5 5 5 5 5 5 5 3 1 3 3 3 4 4 5 5 5 5 3 3 3 3 -0 1 6 9 8 8 7 7 5 5 5 4 4 3 2 2 1
3 3 4 4 4 4 4 5 5 5 5 5 -1 -2 2 2 3 4 4 4 4 4 4 3 2 2 1 -0 2 5 7 7 6 6 6 5 5 4 3 3 2 2 1 1
2 2 3 3 3 3 4 4 5 5 5 4 -1 -4 -3 2 2 3 3 3 -1 2 0 0 1 -1 -1 2 4 5 6 7 7 4 4 4 3 3 2 2 1 1 1 0
2 2 2 2 2 3 3 4 5 4 4 3 1 1 -2 2 2 2 2 2 -1 -3 0 1 -1 -0 4 8 6 7 7 6 5 3 2 2 2 2 2 1 1 1 0 -0
1 2 2 2 2 3 3 3 2 2 1 2 2 1 -2 1 -2 -1 2 -2 -4 -3 -2 -1 -1 1 1 5 6 6 7 6 6 5 5 4 4 3 2 1 0 0 -0 -1
2 2 2 2 2 2 -2 -5 -1 -2 -1 0 -0 1 1 1 1 1 0 -2 -4 -3 -1 -3 -1 0 4 4 4 5 6 5 4 4 4 3 3 2 1 1 0 -0 -1 -1
2 2 2 1 1 -3 -3 -3 -5 -5 -0 -0 -1 -2 1 1 1 0 -2 -3 -2 -1 -5 -2 -2 2 4 3 3 3 3 3 3 2 2 2 2 1 1 0 -0 -1 -1 -2
2 2 -3 -3 -5 -5 -4 -4 -4 2 2 0 1 -0 0 -0 -2 -2 -3 -1 -2 -5 -6 -2 -3 5 4 3 3 3 2 2 2 2 2 1 1 1 0 -0 -1 -1 -2 -3
2 0 -3 -4 0 -0 1 2 2 1 1 1 -0 -1 -0 -4 -3 -2 -3 -4 -6 -4 -2 -3 4 4 4 3 3 2 2 2 1 1 1 1 0 0 -0 -1 -1 -2 -3 -3
1 -0 -3 -1 -2 -2 -1 0 1 1 0 1 1 -4 -5 -4 -4 -4 -4 -5 -4 -3 -5 5 5 4 3 3 3 2 2 2 1 1 1 1 0 -0 -1 -1 -2 -2 -3 -4
-0 -2 -0 0 -0 -0 1 1 2 1 0 -5 -3 -5 -2 -5 -7 -5 -4 -4 -3 4 6 5 5 5 4 3 2 2 2 1 1 1 0 0 -0 -1 -1 -2 -2 -3 -4 -4
Height
1473 1469 1466 1463 1463 1460 1460 1458 1462 1469 1469 1469 1470 1470 1468 1467 1460 1458 1456 1455 1456 1458 1462 1467 1465 1468 1468 1467 1467 1466 1464 1463 1471 1453 1446 1444 1446 1443 1438 1451 1447 1454 1462 1471
1474 1471 1469 1467 1466 1465 1462 1464 1471 1473 1472 1475 1475 1468 1463 1461 1458 1458 1457 1456 1456 1455 1460 1465 1466 1466 1464 1464 1464 1465 1464 1466 1476 1465 1457 1448 1446 1440 1438 1436 1447 1457 1469 1476
1474 1471 1470 1469 1468 1467 1467 1467 1475 1476 1474 1472 1474 1468 1463 1463 1460 1459 1457 1457 1455 1456 1458 1460 1464 1465 1463 1463 1463 1463 1464 1468 1471 1482 1468 1461 1457 1450 1443 1443 1463 1462 1465 1471
1474 1471 1471 1469 1468 1468 1468 1468 1474 1473 1477 1473 1471 1465 1464 1465 1465 1460 1458 1460 1459 1458 1463 1464 1465 1463 1463 1462 1461 1461 1463 1473 1473 1462 1458 1459 1461 1459 1453 1452 1449 1460 1466 1466
1476 1474 1472 1470 1469 1468 1468 1469 1472 1473 1470 1469 1466 1467 1469 1467 1467 1466 1468 1469 1466 1463 1469 1469 1468 1465 1467 1467 1463 1462 1462 1475 1471 1475 1461 1461 1464 1464 1457 1455 1457 1461 1463 1464
1479 1477 1473 1472 1472 1472 1472 1474 1474 1475 1474 1472 1473 1474 1473 1471 1468 1470 1471 1469 1468 1470 1471 1470 1468 1466 1466 1466 1466 1466 1465 1474 1484 1481 1466 1463 1472 1469 1466 1463 1464 1462 1465 1463
1482 1480 1479 1476 1475 1474 1475 1475 1476 1475 1480 1475 1475 1475 1473 1474 1473 1473 1473 1471 1472 1475 1472 1470 1469 1468 1467 1466 1465 1463 1465 1470 1483 1487 1474 1488 1470 1465 1466 1466 1464 1464 1465 1466
1483 1482 1481 1481 1479 1477 1477 1477 1477 1476 1480 1478 1476 1476 1476 1477 1477 1477 1477 1476 1476 1474 1473 1474 1476 1477 1470 1467 1465 1463 1463 1468 1480 1485 1489 1471 1469 1467 1466 1464 1468 1466 1465 1467
1487 1485 1484 1482 1481 1479 1479 1479 1478 1478 1478 1482 1481 1479 1478 1479 1480 1480 1479 1478 1476 1476 1475 1477 1477 1485 1476 1475 1472 1464 1463 1464 1474 1475 1473 1468 1464 1466 1466 1467 1475 1467 1466 1467
1488 1488 1487 1484 1481 1480 1481 1481 1480 1480 1480 1481 1481 1481 1481 1479 1480 1482 1480 1478 1476 1476 1480 1483 1484 1489 1476 1479 1475 1472 1475 1474 1476 1478 1478 1468 1463 1464 1465 1468 1472 1465 1465 1467
1490 1490 1489 1486 1483 1482 1483 1483 1482 1482 1480 1482 1481 1481 1481 1481 1481 1482 1480 1480 1479 1478 1481 1483 1484 1483 1480 1479 1471 1470 1475 1481 1477 1478 1476 1476 1460 1463 1464 1462 1462 1463 1464 1465
1491 1493 1491 1489 1486 1484 1484 1484 1483 1482 1483 1483 1482 1482 1481 1482 1482 1482 1481 1482 1481 1480 1482 1483 1482 1480 1481 1478 1479 1469 1475 1470 1470 1471 1466 1457 1457 1457 1457 1458 1459 1461 1463 1464
1488 1490 1493 1491 1489 1487 1486 1485 1484 1484 1484 1485 1484 1483 1483 1482 1482 1482 1483 1482 1482 1481 1480 1480 1480 1481 1480 1480 1477 1466 1464 1463 1466 1464 1456 1454 1454 1455 1457 1458 1459 1460 1461 1462
1487 1486 1489 1491 1491 1490 1488 1486 1485 1485 1485 1484 1484 1483 1484 1483 1482 1482 1482 1482 1481 1481 1480 1479 1480 1480 1476 1476 1470 1469 1462 1461 1461 1460 1453 1452 1452 1453 1455 1456 1458 1458 1459 1460
1486 1487 1487 1489 1491 1491 1491 1489 1487 1487 1489 1485 1483 1482 1482 1482 1483 1482 1482 1482 1481 1480 1479 1479 1480 1476 1476 1472 1470 1465 1451 1451 1457 1455 1446 1447 1448 1450 1452 1454 1455 1456 1457 1458
1485 1486 1486 1486 1487 1490 1490 1490 1490 1489 1488 1487 1486 1483 1480 1480 1481 1481 1481 1481 1481 1481 1479 1477 1476 1476 1477 1478 1471 1443 1441 1442 1443 1444 1445 1446 1447 1449 1450 1451 1452 1453 1455 1456
1484 1484 1485 1483 1483 1485 1489 1491 1490 1488 1487 1486 1485 1481 1480 1479 1479 1479 1479 1478 1478 1478 1477 1476 1475 1474 1474 1472 1463 1439 1438 1439 1440 1442 1444 1446 1446 1447 1449 1450 1451 1452 1453 1454
1481 1484 1483 1483 1481 1482 1485 1486 1487 1487 1487 1487 1487 1482 1480 1479 1479 1480 1479 1478 1477 1475 1473 1473 1471 1471 1470 1461 1434 1434 1434 1435 1437 1438 1439 1441 1443 1445 1446 1448 1450 1450 1451 1452
1480 1483 1483 1483 1480 1479 1478 1481 1484 1485 1489 1485 1486 1489 1489 1480 1480 1479 1479 1478 1479 1477 1475 1473 1472 1466 1460 1430 1429 1430 1431 1432 1433 1436 1438 1439 1441 1443 1444 1446 1447 1449 1450 1450
1480 1483 1483 1480 1478 1476 1478 1479 1480 1480 1481 1480 1479 1479 1479 1477 1476 1476 1479 1477 1478 1482 1473 1471 1470 1451 1427 1421 1422 1426 1427 1431 1432 1434 1437 1438 1439 1441 1443 1445 1446 1447 1448 1447
1483 1483 1481 1478 1478 1477 1477 1476 1476 1477 1478 1475 1474 1474 1475 1476 1477 1475 1475 1476 1476 1484 1474 1473 1464 1441 1420 1416 1415 1418 1422 1425 1430 1433 1433 1435 1437 1439 1441 1443 1444 1445 1446 1446
1477 1480 1481 1480 1479 1476 1475 1478 1475 1473 1472 1470 1473 1474 1474 1475 1476 1476 1478 1479 1480 1484 1473 1475 1461 1427 1418 1417 1415 1416 1421 1424 1426 1430 1432 1433 1435 1437 1439 1442 1442 1443 1443 1442
1474 1477 1479 1478 1477 1481 1476 1476 1473 1470 1461 1462 1468 1474 1474 1474 1475 1475 1477 1482 1480 1475 1481 1466 1440 1420 1417 1416 1418 1421 1422 1423 1425 1429 1432 1435 1435 1437 1439 1440 1440 1439 1440 1439
1471 1471 1476 1476 1476 1469 1457 1454 1453 1451 1453 1456 1461 1470 1473 1473 1475 1474 1480 1474 1474 1485 1487 1455 1426 1418 1417 1416 1415 1417 1420 1423 1425 1427 1429 1431 1433 1434 1436 1438 1438 1437 1436 1435
1464 1464 1465 1461 1453 1454 1453 1451 1451 1450 1453 1454 1461 1466 1470 1471 1474 1474 1476 1481 1482 1469 1452 1433 1420 1418 1416 1416 1416 1415 1417 1419 1422 1425 1427 1429 1432 1431 1432 1433 1433 1433 1432 1431
1456 1454 1450 1445 1448 1449 1453 1452 1450 1450 1451 1456 1459 1465 1472 1471 1469 1475 1473 1476 1464 1439 1428 1419 1417 1416 1415 1416 1418 1420 1418 1418 1420 1422 1424 1425 1427 1429 1429 1430 1429 1428 1427 1426
1443 1436 1434 1435 1435 1440 1443 1447 1449 1450 1452 1452 1455 1464 1459 1462 1470 1466 1453 1448 1428 1419 1417 1416 1414 1411 1411 1415 1416 1418 1420 1420 1420 1421 1422 1423 1425 1426 1427 1427 1426 1424 1423 1422
Wind_Speed
25 24 22 17 12 12 17 18 5 8 8 4 3 1 2 7 7 9 2 4 4 3 4 3 2 3 3 10 4 3 6 2 3 3 4 4 3 6 1 4 5 4 4 3
23 19 15 15 10 9 11 8 9 9 2 2 1 4 4 3 4 4 4 2 3 2 3 4 3 3 2 2 2 2 4 3 3 8 5 6 4 7 4 2 3 4 4 2
22 17 11 10 9 9 7 6 3 1 2 3 2 3 2 2 5 4 3 4 3 1 3 1 3 1 2 2 1 3 1 3 3 4 5 4 5 8 12 4 4 1 1 8
18 12 8 5 6 3 3 3 3 4 2 4 5 2 3 3 4 7 8 6 5 2 4 4 3 1 3 3 3 2 4 2 3 4 1 4 5 5 10 9 2 4 6 3
14 11 5 2 4 6 5 5 4 3 4 4 2 4 4 4 4 6 6 5 6 10 5 4 3 2 3 0 5 2 3 1 2 4 3 5 3 9 8 8 8 8 6 3
10 13 13 7 7 2 7 8 2 2 5 4 4 5 5 5 2 6 7 1 5 7 6 12 13 5 3 2 1 3 2 3 3 3 3 3 5 4 4 3 4 1 2 2
9 8 11 10 7 11 11 4 3 2 3 3 2 3 4 7 5 3 7 11 4 4 10 7 2 2 4 5 5 4 2 3 2 3 3 3 5 1 1 2 3 4 5 5
9 6 7 7 4 6 6 1 3 2 1 2 5 6 5 7 11 5 4 7 4 9 6 3 3 3 2 2 2 4 2 3 2 3 1 2 2 3 2 2 0 3 3 4
7 5 3 4 4 2 5 1 3 4 5 2 3 3 2 2 3 4 3 5 7 7 2 3 2 0 2 4 8 5 4 3 3 2 2 3 3 2 2 0 1 1 4 4
5 5 10 9 2 2 5 1 1 2 4 1 2 2 0 1 2 2 2 4 4 3 3 2 1 2 1 2 3 3 3 3 2 1 1 4 2 5 3 2 4 4 3 7
3 4 10 12 8 6 4 2 2 3 2 4 1 0 1 1 1 2 2 3 3 4 3 2 2 1 2 2 3 2 3 2 2 1 0 4 6 3 5 4 5 6 5 5
6 6 7 11 12 5 3 2 3 4 1 4 3 2 0 1 1 1 1 1 1 1 1 1 1 1 1 2 3 0 2 5 3 6 5 4 10 4 6 6 5 5 5 6
7 3 5 7 11 9 5 5 4 4 3 2 1 1 2 2 2 1 1 2 2 1 3 2 2 2 2 2 4 2 3 4 2 3 1 5 10 9 8 6 6 5 5 6
7 10 4 3 7 8 6 3 4 3 1 0 2 3 3 3 3 4 3 2 1 2 3 1 0 1 2 3 4 3 6 5 4 4 7 2 6 11 8 7 6 6 6 5
10 8 8 5 4 5 6 8 6 4 2 2 3 6 6 4 4 3 3 3 2 2 2 1 2 2 1 3 2 4 9 7 5 5 8 4 3 10 8 8 7 7 6 5
11 8 6 5 6 4 4 2 4 6 5 4 3 3 7 7 5 4 3 3 3 3 2 3 3 2 2 1 3 9 13 15 16 5 9 5 7 7 7 8 8 7 6 5
11 10 7 6 8 8 4 1 6 5 4 2 4 6 3 4 5 4 4 4 4 3 3 3 2 2 4 2 5 6 10 16 14 10 9 5 8 5 7 7 7 5 4 3
14 9 8 5 6 9 8 8 5 5 3 3 1 3 2 1 1 3 3 3 3 5 4 2 3 2 4 5 11 10 12 15 13 12 13 9 6 8 8 7 6 5 4 2
16 10 9 7 5 5 10 10 6 8 6 2 2 3 3 1 0 2 1 2 1 2 2 3 2 3 6 9 11 13 19 14 12 14 11 9 9 9 9 8 7 5 4 4
15 10 5 5 4 5 7 5 3 2 4 5 5 5 2 4 4 2 1 1 1 1 2 2 3 5 28 30 21 13 15 20 13 16 13 14 13 12 10 8 6 5 5 6
14 5 5 5 4 6 4 3 3 3 2 5 4 8 2 6 2 3 4 2 1 1 4 2 3 4 5 9 16 28 17 18 15 11 8 11 8 12 11 9 6 5 6 9
11 3 3 3 4 2 3 2 0 3 5 5 3 4 5 3 2 1 1 1 3 4 3 1 4 4 10 8 5 16 17 16 16 13 9 11 10 11 9 8 6 5 8 9
8 4 2 3 4 2 7 7 4 2 9 10 7 1 4 3 3 3 2 2 4 1 1 4 5 10 9 4 9 12 13 14 15 13 11 10 10 10 8 6 5 6 7 10
5 6 2 5 3 5 5 4 4 6 9 17 15 6 3 2 2 3 3 3 2 2 2 6 3 10 12 10 12 14 16 16 16 15 14 12 10 8 6 5 7 7 9 12
6 6 5 6 9 4 4 6 7 7 13 21 8 4 4 1 2 2 2 3 4 6 5 3 7 17 10 13 15 16 18 19 18 17 15 12 10 8 6 6 6 9 11 12
7 8 3 8 2 4 7 12 8 14 21 12 5 4 3 4 4 3 7 5 7 4 4 8 18 18 11 13 14 15 16 17 18 17 14 12 10 8 6 5 7 9 12 14
8 9 19 11 4 7 13 16 13 18 20 3 4 6 9 2 2 4 5 6 4 7 11 17 18 14 10 13 15 16 16 18 18 16 14 12 9 8 6 7 8 10 12 15
Wind_Direction
18 19 34 56 89 125 118 80 76 112 116 39 43 3 178 217 240 209 258 60 81 95 97 109 118 139 237 212 233 223 222 240 295 279 290 265 276 271 118 98 329 49 91 11
8 18 26 49 104 149 73 68 83 154 354 101 359 276 257 17 29 10 30 59 50 131 131 102 137 134 257 268 246 290 347 335 352 336 349 347 0 342 348 96 62 12 107 176
4 16 29 44 90 98 78 108 92 223 308 253 176 249 54 36 343 1 46 45 340 13 97 325 117 129 257 263 272 234 314 34 150 166 219 248 353 347 5 60 74 260 88 149
10 34 47 40 63 138 117 84 152 201 214 257 247 298 76 69 13 344 26 24 6 356 95 86 77 49 323 274 277 280 128 76 35 357 46 59 28 358 12 32 22 108 175 99
23 53 31 305 47 125 82 104 142 199 284 302 345 55 20 44 16 36 11 73 44 65 81 48 36 333 52 288 321 347 14 180 74 2 66 80 44 14 8 30 26 78 137 132
39 45 46 102 114 136 81 93 91 310 343 352 53 3 35 6 67 33 44 200 70 37 356 337 316 36 50 10 28 334 77 112 63 276 336 353 2 349 16 58 32 73 111 269
57 67 61 88 116 122 120 104 12 36 331 63 114 86 78 51 27 84 9 46 68 343 326 322 303 168 110 62 13 45 100 103 108 227 14 38 250 315 205 101 64 66 67 53
75 105 73 60 48 191 174 75 25 51 100 347 46 82 109 89 59 54 40 35 12 338 332 29 19 338 308 320 2 349 71 118 57 100 117 212 210 243 226 146 315 4 141 110
76 82 55 6 347 294 212 350 36 44 109 351 337 337 42 75 56 14 353 2 352 358 32 46 70 132 305 312 338 325 333 83 109 71 105 218 217 187 165 293 257 228 152 165
100 40 12 11 357 209 197 171 89 45 92 93 24 68 106 350 82 137 305 338 349 3 34 59 70 286 194 296 302 325 336 356 123 334 268 283 192 154 158 143 220 174 139 174
53 22 41 50 61 111 133 209 217 196 122 151 173 167 285 110 44 139 331 1 345 2 52 109 258 169 252 325 245 203 190 138 228 109 107 295 165 120 186 183 158 171 151 155
102 3 34 47 47 63 131 127 156 134 126 148 132 111 1 289 317 341 36 71 12 350 74 356 94 310 335 194 279 317 265 186 195 178 216 212 191 207 167 167 179 183 185 184
163 138 357 32 34 39 58 104 118 92 80 96 209 253 358 322 252 189 4 49 344 355 351 239 236 265 123 252 249 264 271 171 217 11 274 210 193 205 200 195 197 189 196 201
199 186 186 326 12 16 48 53 49 68 108 104 263 271 277 283 221 216 246 280 311 314 316 321 187 222 180 243 252 204 212 143 200 260 274 245 225 215 224 215 215 219 214 218
215 204 193 212 314 336 8 33 32 7 356 274 289 271 250 260 259 238 237 226 249 280 283 75 249 256 342 282 338 249 193 188 171 226 213 195 188 192 210 218 222 222 223 217
216 207 200 200 223 270 301 337 21 1 346 337 337 281 237 233 232 234 232 251 270 269 274 256 257 256 249 279 253 257 230 225 228 212 195 205 170 189 200 207 213 216 224 226
209 203 219 221 215 222 229 297 322 320 341 301 311 333 324 274 244 228 227 234 247 246 250 237 244 224 220 238 240 256 250 219 211 211 195 182 202 217 210 215 212 214 211 222
210 223 221 228 211 219 225 235 315 330 310 271 170 265 315 257 250 288 295 285 258 229 242 224 207 213 218 257 240 264 223 198 207 212 217 230 215 201 195 196 198 202 215 243
213 221 227 232 235 206 204 212 257 294 245 279 162 147 256 12 227 256 241 266 322 316 293 267 173 228 228 233 230 231 207 205 215 205 212 212 209 198 197 199 200 210 223 266
193 201 223 242 216 179 178 182 208 216 209 218 217 202 246 177 178 195 244 223 250 303 251 289 236 255 249 248 246 251 231 218 207 181 192 201 204 202 204 205 203 219 250 282
177 216 249 234 211 202 193 162 153 165 272 215 224 207 184 203 125 207 212 194 243 86 256 144 270 269 257 289 263 233 217 209 213 218 220 210 214 201 200 203 209 237 278 297
184 213 252 218 228 213 107 231 212 170 212 186 197 201 199 176 200 355 295 169 40 251 334 44 264 253 306 310 212 186 196 196 196 202 202 185 188 188 193 201 223 263 288 298
166 190 225 227 216 6 176 200 264 199 179 166 162 203 188 161 178 104 91 105 225 287 45 236 239 278 294 238 192 189 190 192 192 187 183 181 177 180 195 216 249 282 295 306
181 175 249 177 244 249 204 183 184 165 158 157 149 139 183 170 114 158 111 226 79 345 274 242 255 299 298 222 200 200 194 196 197 193 187 187 191 192 208 251 285 298 310 315
190 184 208 214 239 273 223 181 153 148 155 147 128 112 170 172 118 193 67 16 254 211 231 237 297 322 284 221 206 195 192 193 195 194 195 194 205 210 231 264 288 309 317 320
203 223 226 209 164 235 222 211 189 171 157 144 132 119 82 242 160 123 215 152 228 247 221 270 309 313 275 230 221 214 206 201 198 198 201 202 212 227 249 272 301 313 319 323
209 227 212 209 212 227 221 211 199 175 164 172 142 150 209 105 106 237 187 211 219 220 279 307 311 302 262 235 226 220 215 207 204 204 206 209 218 238 256 288 304 316 319 322